Wind_Speed
11 12 13 15 16 15 13 15 15 11 7 4 4 6 5 6 6 11 3 6 4 7 7 4 1 2 2 1 2 9 1 4 5 4 3 3 3 3 3 3 7 5 6 3 8 10 14 20 15 9 11 17 16 23
10 11 12 14 15 13 11 13 13 9 6 5 2 2 3 4 4 8 5 8 5 3 5 6 5 4 3 1 3 6 3 5 4 1 1 0 1 2 4 2 3 2 4 4 4 5 17 22 16 23 22 24 34 27
9 10 10 12 14 13 10 11 12 8 8 6 4 4 3 4 5 5 2 6 8 10 15 12 7 6 3 2 1 3 3 3 3 1 2 0 3 2 3 3 1 6 8 3 6 4 19 27 31 26 27 30 34 33
9 9 9 11 13 12 11 10 10 9 7 7 5 3 5 5 6 6 3 5 8 11 7 3 5 4 3 6 4 4 7 4 4 6 4 2 2 4 2 3 2 2 6 5 7 16 18 12 17 24 25 24 30 33
9 8 8 11 12 12 11 10 9 9 7 7 6 4 4 4 6 10 8 6 4 7 7 15 9 11 9 6 8 9 10 11 3 5 5 5 4 4 4 3 1 4 3 2 4 17 15 18 22 18 35 22 23 17
9 7 8 10 11 11 11 10 8 8 8 7 7 6 6 5 6 7 3 1 4 4 5 4 3 6 9 5 7 9 10 12 7 7 9 2 3 5 2 0 5 5 7 2 6 20 11 21 16 22 23 21 6 10
9 7 7 9 9 9 9 8 7 7 7 7 7 7 8 6 6 4 3 6 6 6 4 5 4 3 1 4 6 9 9 12 12 8 12 6 7 5 2 2 12 4 0 3 7 11 8 17 17 21 17 19 17 13
9 7 7 8 8 7 8 8 7 7 7 8 8 8 8 8 8 6 6 7 6 4 5 3 4 4 5 2 3 6 4 8 5 9 5 2 3 6 0 7 6 11 5 4 4 9 10 14 14 19 20 17 19 20
9 6 7 7 7 7 8 8 8 8 8 9 8 7 6 2 3 6 12 15 7 6 4 3 3 4 5 3 2 4 5 3 7 4 1 4 2 2 4 6 4 4 9 12 10 12 9 12 14 15 25 19 17 17
9 6 7 8 8 9 9 10 9 10 10 7 3 1 4 5 8 12 4 3 6 7 8 8 15 5 8 3 3 4 6 4 2 3 7 3 3 9 5 3 2 1 6 9 10 10 14 15 13 12 14 24 19 16
8 6 8 9 10 10 10 10 8 8 5 4 4 2 8 11 3 4 5 7 10 7 9 14 14 11 5 3 4 3 2 2 1 4 5 4 2 5 5 3 3 1 2 2 7 9 7 9 12 12 12 14 21 20
8 7 8 10 12 12 12 10 8 6 3 8 11 12 7 4 6 7 5 5 2 3 4 11 4 5 4 2 4 5 3 3 3 7 3 1 1 0 3 2 6 3 3 1 1 4 7 8 8 9 11 11 14 18
7 8 9 10 13 10 7 6 5 6 9 5 3 4 5 5 2 5 1 4 6 11 16 28 18 5 1 2 4 3 3 2 5 4 2 2 2 2 3 5 6 5 2 2 4 2 7 8 8 6 9 12 11 13
7 9 10 9 7 3 1 2 5 8 4 5 6 3 4 5 1 4 4 10 3 5 10 9 14 3 6 5 5 5 4 4 2 2 1 4 4 5 5 6 7 9 9 4 6 3 6 6 10 5 6 8 10 10
8 9 10 10 7 6 7 8 7 6 3 6 5 3 6 7 12 4 10 7 8 4 2 11 9 7 4 2 3 3 3 3 3 3 3 1 4 6 5 7 8 9 9 7 5 5 7 6 9 11 4 4 7 10
7 9 6 4 7 12 12 7 5 4 4 6 6 9 8 4 10 15 7 15 17 19 14 6 5 3 3 1 2 1 5 2 3 6 1 3 3 4 5 7 9 10 7 5 6 7 8 7 6 8 11 1 4 7
6 2 6 10 16 12 6 2 2 5 6 5 7 2 9 16 11 20 10 10 13 11 5 5 3 1 3 2 2 2 3 5 9 11 5 4 4 5 7 8 8 9 9 7 6 7 6 8 8 8 9 11 5 8
2 12 14 10 11 5 5 7 5 7 10 15 13 9 11 10 10 9 9 9 11 12 10 7 1 2 2 5 4 5 10 10 10 12 8 3 3 5 7 8 8 9 8 5 6 6 5 7 8 8 11 13 12 13
7 13 15 6 8 5 4 7 7 6 11 9 6 10 8 3 4 8 10 5 4 7 3 2 2 3 3 5 9 11 17 16 5 17 1 1 6 6 8 8 9 10 10 9 6 5 1 4 7 8 10 11 13 11
11 7 4 4 7 3 5 5 7 7 6 6 11 7 7 16 10 3 3 6 3 2 1 2 3 6 9 5 10 11 10 14 9 7 10 3 6 6 8 11 10 12 13 7 6 1 3 0 4 4 10 11 9 12
4 2 4 6 6 8 6 7 12 9 6 8 8 7 3 2 2 6 8 3 4 7 5 8 6 7 4 9 11 10 9 10 11 13 13 11 4 7 9 11 10 10 12 9 4 4 1 4 5 4 7 8 10 8
3 8 4 4 5 8 8 10 8 6 8 7 12 3 3 8 4 5 5 1 4 7 5 6 9 11 6 9 7 5 6 7 7 10 17 8 10 9 9 8 9 7 15 5 8 7 8 9 5 5 7 6 6 8
4 4 5 7 7 4 7 9 7 10 4 5 8 1 4 1 0 6 5 6 3 2 2 6 7 8 8 4 8 6 8 5 7 6 3 3 10 7 7 8 9 10 9 7 6 5 8 8 2 4 5 7 7 8
4 4 5 6 10 6 12 11 13 11 9 2 6 3 2 3 3 5 2 3 4 1 1 6 3 4 5 7 7 4 8 11 7 5 6 8 5 4 8 9 10 7 8 10 14 11 5 7 8 6 7 8 8 7
4 6 6 7 6 8 7 6 16 4 7 11 12 3 5 4 3 3 3 2 5 8 9 9 9 8 6 9 11 10 11 11 9 9 9 8 6 5 7 5 6 9 7 6 6 13 14 13 5 9 9 7 10 10
4 7 7 6 11 10 7 11 6 1 8 10 4 8 3 4 4 3 3 12 6 8 9 8 8 9 9 9 9 10 10 9 10 11 9 9 10 9 8 8 10 10 13 11 8 8 8 8 7 7 9 10 10 10
4 7 13 17 15 12 9 5 13 7 10 6 5 7 6 5 3 4 13 13 5 4 5 6 6 7 7 6 7 8 9 10 12 11 10 9 9 9 7 7 6 8 10 12 13 9 5 7 9 9 9 9 7 7
11 9 11 12 13 15 13 9 10 4 6 10 5 2 5 6 5 8 13 6 3 4 4 5 6 6 6 5 5 5 5 6 8 9 9 8 8 7 7 9 9 11 10 9 8 10 8 10 7 6 6 7 8 7
11 15 16 15 15 11 11 15 4 5 2 13 4 2 6 13 13 12 8 7 7 2 2 2 3 2 4 5 4 3 2 1 4 6 5 6 8 8 8 7 7 7 7 7 6 7 9 9 9 8 7 7 7 6
15 15 17 13 13 11 9 6 16 20 29 10 12 19 20 13 9 7 7 7 4 2 2 3 3 2 2 1 3 4 4 3 4 4 6 8 8 7 7 7 7 7 6 6 8 8 7 6 7 6 7 7 7 8
16 13 13 15 9 5 5 12 24 21 8 13 12 15 9 7 4 4 2 1 3 2 2 2 3 3 3 2 2 4 5 5 6 7 8 7 7 6 5 6 5 6 5 4 5 5 5 5 6 6 6 7 7 7
12 12 13 12 9 4 2 8 28 5 7 13 8 5 5 4 5 8 5 4 3 3 1 1 2 2 3 4 4 8 10 10 11 10 7 7 7 7 5 4 4 4 3 4 4 4 4 5 5 5 5 5 5 6
12 8 14 13 9 7 3 6 11 4 12 9 2 4 5 3 3 3 5 7 5 1 5 5 5 5 7 7 8 8 8 7 11 13 11 11 11 9 7 6 5 3 3 3 3 3 4 4 4 4 4 4 5 6
Wind_Direction
296 307 322 329 334 337 342 347 349 349 352 3 33 49 48 60 69 80 360 9 45 333 66 24 10 295 271 165 266 2 358 354 45 32 19 8 330 353 310 281 324 297 315 285 238 245 261 5 315 249 322 307 305 305
289 300 318 327 331 330 333 346 348 353 355 357 306 10 21 30 49 44 20 338 328 280 299 310 296 294 236 285 356 14 43 33 64 52 97 279 304 312 311 333 10 295 334 313 305 307 314 308 307 300 301 293 290 296
282 294 315 325 325 327 326 336 347 346 346 345 332 270 293 353 358 1 7 317 338 295 293 247 254 227 231 251 312 341 70 124 153 300 79 168 261 31 312 301 347 346 22 293 325 329 321 311 310 304 283 274 288 285
273 286 312 319 319 328 325 313 334 339 328 336 339 322 276 293 318 322 272 300 307 317 287 356 254 229 230 223 253 269 292 264 152 172 186 171 216 182 264 298 220 251 291 264 253 280 306 296 312 307 300 287 271 272
267 284 310 313 319 326 324 306 305 331 318 320 322 316 303 313 325 325 296 275 271 314 304 306 249 247 231 244 254 265 276 283 228 180 210 203 189 184 207 252 267 244 277 305 286 303 292 292 313 314 306 286 263 263
258 279 305 312 321 328 323 305 299 310 317 311 311 299 293 302 322 21 335 132 227 307 298 297 248 214 227 237 265 265 258 275 226 268 282 203 196 216 255 104 276 203 233 340 311 327 302 321 323 343 347 3 353 358
249 274 302 312 323 330 329 320 309 308 319 317 304 296 285 287 287 245 251 211 236 306 254 275 291 255 164 221 253 253 256 263 287 258 246 147 216 215 354 10 353 125 234 314 5 7 327 354 348 353 335 340 13 27
240 267 298 309 321 324 327 329 323 315 320 324 312 295 285 281 287 274 275 270 271 243 247 269 282 151 211 239 251 232 229 237 251 243 311 55 132 33 285 340 47 358 60 6 8 42 18 353 6 13 4 14 11 18
235 261 293 306 314 307 305 320 332 323 321 326 320 296 281 258 253 245 273 282 248 220 278 248 281 297 194 298 278 212 213 239 247 232 199 90 88 239 217 295 33 2 4 12 24 41 29 28 19 28 23 14 13 13
232 259 289 304 306 301 299 297 300 327 326 329 330 324 226 215 257 287 317 185 207 202 226 239 228 249 252 238 272 256 193 212 231 227 156 113 226 228 237 285 115 31 345 10 28 20 19 14 25 39 45 23 17 16
231 261 287 302 301 298 296 293 290 302 341 334 236 280 269 300 260 242 246 214 195 213 215 242 219 237 232 247 241 249 240 158 221 251 188 155 252 163 145 190 231 206 138 25 14 18 17 21 11 34 39 36 26 28
237 268 291 302 300 296 288 277 268 272 271 264 288 297 270 261 235 242 239 252 185 259 241 252 220 315 5 53 33 280 247 189 265 248 91 58 202 59 118 94 173 245 246 117 95 50 17 14 21 34 40 38 35 29
250 277 294 306 313 309 280 252 235 287 299 296 270 230 229 253 321 231 180 259 6 13 337 351 353 321 111 197 183 237 238 252 244 46 154 221 75 217 87 20 25 16 18 342 82 41 20 14 9 31 45 51 40 40
261 281 293 302 310 318 240 220 282 295 285 252 215 278 251 224 35 216 302 351 291 250 298 267 275 354 35 68 304 344 337 249 144 56 36 337 8 352 65 15 1 353 94 38 4 32 23 31 14 61 72 54 47 52
274 288 289 290 252 279 304 300 282 261 241 254 244 231 243 311 305 351 316 322 347 292 244 303 343 74 51 89 358 343 313 322 42 359 349 170 48 60 12 354 349 337 8 55 346 42 27 19 35 29 69 70 59 53
294 303 298 255 265 291 304 292 272 201 248 243 243 265 295 265 277 309 358 1 353 14 330 29 28 22 51 51 308 331 338 308 1 300 284 39 41 45 20 342 344 342 331 18 23 5 359 0 20 40 20 43 98 71
312 278 288 297 299 299 266 214 209 230 249 243 249 23 323 298 305 354 14 2 351 340 333 17 9 44 330 292 294 241 308 319 309 345 39 81 31 3 336 322 332 333 327 325 351 345 5 342 13 11 31 35 73 84
33 292 284 302 292 282 232 209 244 242 236 246 264 326 280 324 347 306 31 26 359 348 32 27 69 277 300 329 359 344 317 318 324 326 3 15 358 330 314 317 318 313 307 283 308 336 9 343 337 18 36 36 45 106
284 283 293 267 233 204 238 213 225 266 252 256 324 331 302 39 299 20 27 336 61 27 112 252 14 346 352 354 326 329 333 310 328 306 84 284 279 286 302 295 300 300 289 263 258 281 9 34 10 19 29 28 34 49
303 283 247 221 199 214 241 237 199 261 293 277 260 287 298 41 358 286 337 41 37 128 159 47 1 346 313 307 334 330 317 326 331 301 324 348 284 276 289 282 325 316 294 269 288 128 298 117 62 50 47 38 32 45
304 236 251 253 228 228 280 275 218 248 277 289 290 298 162 270 32 359 104 67 358 33 33 30 352 322 333 339 351 344 342 341 330 331 342 315 301 335 8 352 347 353 16 17 358 276 338 90 64 56 56 53 52 60
266 279 278 259 237 229 241 242 250 234 264 287 357 300 111 273 36 19 64 87 31 46 54 2 339 326 339 354 319 314 355 339 322 308 317 339 5 355 349 334 304 9 15 353 24 23 279 96 52 56 68 73 63 51
297 247 236 228 239 263 258 258 251 252 226 243 355 41 245 103 133 76 46 282 80 261 57 3 346 308 292 326 299 297 324 336 316 355 15 39 350 343 345 337 346 360 25 35 30 4 50 356 333 97 84 78 58 63
296 248 243 230 205 241 237 216 225 246 259 325 234 200 186 47 29 75 151 12 15 73 91 352 352 335 222 317 308 126 354 348 18 21 11 2 22 32 17 20 342 350 6 29 44 36 358 261 19 79 81 70 73 48
241 240 227 243 246 226 240 221 251 41 310 207 251 171 190 131 130 159 147 245 7 13 353 346 344 329 5 2 357 15 10 351 34 69 59 60 47 29 0 60 31 26 23 15 27 54 50 104 59 63 71 56 70 62
222 221 205 234 219 230 237 238 212 347 323 244 247 16 308 173 139 165 114 68 346 16 359 355 357 355 20 20 18 18 21 27 70 64 45 23 31 30 57 45 38 14 30 12 61 24 91 86 91 103 79 59 64 66
245 247 223 248 277 269 248 285 13 295 247 249 22 278 189 183 111 94 112 96 69 29 19 19 28 30 38 47 55 62 62 68 67 60 46 46 52 53 67 67 39 29 44 49 44 55 77 65 83 81 79 82 63 69
238 270 273 230 228 252 264 245 176 205 72 324 238 0 44 307 71 108 123 110 115 120 82 64 63 64 62 65 75 82 91 104 84 59 58 63 55 59 59 61 76 59 50 44 90 63 66 72 81 80 70 66 68 70
240 243 247 263 256 242 259 270 342 81 172 181 245 143 152 90 124 126 92 97 133 173 118 63 29 138 83 66 56 39 24 8 148 80 92 95 81 74 86 79 69 77 63 77 74 60 73 66 66 62 62 63 58 51
240 244 249 237 251 262 311 39 334 290 259 250 104 112 108 96 115 128 86 96 130 138 58 65 51 45 43 56 77 50 61 98 72 55 110 103 110 110 97 85 83 79 82 79 69 64 58 57 65 60 56 56 51 45
238 220 235 257 271 74 25 323 309 272 98 91 95 125 127 137 107 157 188 100 145 140 122 98 64 31 28 55 74 123 88 101 117 96 95 111 119 122 113 100 93 84 84 72 73 62 51 75 70 52 45 44 41 25
242 246 262 260 249 88 51 279 267 241 169 127 112 101 118 142 146 175 172 134 136 161 199 52 83 72 86 110 124 109 117 122 134 144 109 126 122 117 116 110 106 88 84 85 75 68 68 60 56 50 33 16 21 17
243 251 45 49 40 27 133 217 275 87 51 50 16 172 153 147 105 118 135 142 144 139 151 136 131 139 130 133 139 136 155 180 172 169 161 156 149 146 87 117 110 104 100 84 70 73 77 74 60 55 36 22 23 17
Height
1561 1560 1558 1556 1554 1551 1547 1545 1542 1539 1536 1534 1533 1531 1531 1530 1529 1527 1530 1525 1526 1523 1521 1521 1522 1521 1519 1520 1519 1514 1515 1514 1514 1517 1520 1520 1519 1517 1517 1515 1509 1504 1493 1487 1482 1481 1480 1476 1471 1473 1471 1468 1471 1470
1557 1557 1555 1555 1552 1549 1546 1544 1542 1540 1537 1535 1533 1532 1531 1531 1530 1529 1532 1528 1526 1527 1523 1522 1521 1520 1519 1518 1518 1517 1519 1518 1519 1520 1522 1523 1522 1520 1518 1510 1512 1505 1509 1505 1502 1484 1478 1481 1480 1476 1476 1471 1465 1467
1554 1555 1552 1552 1550 1547 1545 1544 1542 1540 1538 1535 1533 1532 1532 1531 1531 1530 1531 1531 1530 1526 1521 1519 1516 1518 1518 1518 1518 1517 1517 1518 1519 1521 1522 1524 1523 1523 1515 1511 1513 1509 1510 1507 1503 1483 1482 1479 1475 1472 1468 1463 1460 1460
1551 1551 1550 1549 1548 1546 1544 1543 1541 1539 1538 1536 1533 1532 1531 1531 1530 1529 1530 1532 1532 1530 1521 1517 1516 1516 1516 1516 1516 1516 1515 1514 1516 1517 1519 1519 1519 1521 1517 1515 1516 1514 1510 1506 1498 1490 1486 1478 1477 1471 1464 1459 1458 1455
1549 1549 1547 1547 1545 1543 1542 1540 1539 1538 1537 1535 1533 1532 1531 1530 1529 1528 1528 1529 1531 1533 1524 1515 1512 1512 1512 1513 1514 1514 1513 1511 1511 1514 1514 1512 1511 1516 1514 1514 1514 1511 1506 1504 1495 1491 1488 1480 1474 1468 1458 1449 1449 1446
1547 1546 1545 1545 1543 1541 1540 1538 1537 1536 1535 1534 1532 1531 1530 1529 1529 1529 1529 1530 1529 1529 1527 1512 1509 1508 1509 1510 1511 1510 1509 1506 1508 1504 1502 1502 1503 1506 1503 1505 1505 1505 1503 1500 1496 1489 1484 1479 1472 1465 1456 1448 1444 1440
1544 1544 1543 1543 1541 1540 1538 1537 1535 1534 1534 1532 1531 1530 1529 1528 1527 1530 1529 1528 1526 1527 1526 1515 1506 1504 1504 1506 1506 1506 1505 1504 1503 1499 1494 1496 1500 1502 1499 1505 1502 1502 1500 1498 1493 1487 1482 1477 1471 1465 1457 1451 1445 1439
1541 1542 1542 1541 1540 1539 1538 1536 1534 1533 1532 1530 1529 1528 1526 1525 1525 1525 1523 1523 1524 1524 1522 1513 1502 1503 1502 1503 1503 1502 1502 1501 1498 1493 1492 1491 1495 1499 1503 1500 1500 1499 1497 1496 1493 1487 1483 1479 1474 1467 1459 1453 1447 1442
1539 1539 1540 1539 1538 1538 1537 1536 1534 1532 1530 1529 1527 1525 1524 1523 1525 1523 1520 1519 1519 1524 1518 1513 1506 1500 1497 1497 1497 1498 1497 1496 1493 1488 1490 1495 1500 1504 1500 1498 1499 1498 1496 1494 1491 1488 1483 1477 1474 1470 1464 1458 1454 1450
1536 1537 1537 1537 1536 1535 1535 1534 1532 1531 1529 1527 1525 1525 1524 1523 1519 1519 1516 1518 1517 1516 1513 1503 1498 1495 1493 1493 1492 1491 1491 1490 1490 1486 1487 1494 1502 1497 1497 1496 1495 1495 1494 1492 1490 1488 1485 1480 1475 1474 1470 1464 1458 1454
1533 1534 1535 1534 1533 1532 1532 1531 1530 1529 1528 1526 1525 1524 1520 1519 1519 1517 1512 1507 1502 1499 1495 1489 1490 1490 1484 1486 1488 1486 1486 1486 1493 1483 1480 1491 1494 1491 1492 1494 1494 1492 1491 1490 1489 1488 1485 1481 1477 1475 1472 1468 1463 1458
1531 1532 1531 1531 1530 1529 1528 1527 1527 1528 1529 1527 1524 1523 1522 1519 1515 1508 1499 1488 1485 1486 1484 1480 1480 1481 1484 1486 1490 1486 1482 1485 1482 1476 1475 1492 1490 1491 1489 1490 1491 1490 1489 1488 1486 1485 1485 1481 1478 1476 1473 1469 1466 1462
1530 1530 1529 1528 1527 1525 1524 1524 1525 1526 1525 1524 1523 1520 1517 1511 1510 1497 1503 1500 1500 1499 1496 1487 1487 1482 1485 1486 1484 1488 1482 1485 1474 1480 1487 1488 1487 1488 1488 1488 1488 1487 1488 1486 1486 1485 1484 1481 1477 1476 1475 1472 1468 1464
1528 1527 1526 1526 1525 1525 1524 1524 1524 1524 1523 1522 1517 1517 1507 1500 1499 1499 1498 1492 1490 1490 1488 1488 1485 1483 1489 1493 1494 1492 1486 1479 1479 1485 1491 1488 1487 1486 1487 1487 1487 1486 1484 1485 1485 1483 1482 1480 1476 1475 1474 1473 1471 1468
1525 1524 1524 1523 1523 1524 1523 1522 1521 1521 1521 1516 1509 1511 1496 1493 1493 1491 1494 1490 1488 1484 1485 1483 1479 1485 1494 1494 1496 1492 1490 1482 1481 1486 1486 1487 1486 1486 1486 1486 1485 1484 1483 1484 1484 1482 1481 1481 1478 1475 1472 1473 1471 1468
1523 1523 1521 1521 1521 1521 1519 1518 1518 1519 1519 1513 1505 1496 1491 1491 1488 1484 1481 1481 1483 1482 1483 1482 1485 1489 1494 1496 1497 1494 1491 1489 1486 1484 1484 1486 1485 1486 1485 1485 1484 1482 1483 1481 1482 1481 1480 1478 1477 1476 1472 1469 1470 1469
1522 1521 1521 1520 1519 1517 1516 1517 1519 1518 1511 1502 1494 1493 1497 1489 1482 1480 1482 1481 1482 1482 1479 1480 1487 1492 1492 1492 1494 1494 1489 1489 1484 1482 1484 1484 1485 1485 1485 1484 1483 1482 1481 1480 1480 1479 1479 1477 1476 1476 1474 1472 1469 1469
1521 1519 1518 1518 1516 1515 1515 1515 1514 1507 1500 1495 1490 1493 1487 1483 1485 1483 1482 1482 1485 1483 1483 1488 1491 1490 1490 1490 1489 1491 1488 1484 1485 1483 1484 1483 1483 1484 1483 1482 1482 1481 1479 1479 1478 1478 1478 1476 1474 1473 1472 1472 1471 1468
1517 1516 1514 1514 1515 1514 1514 1512 1510 1501 1491 1489 1488 1486 1482 1485 1488 1485 1486 1485 1485 1488 1489 1488 1489 1491 1491 1492 1491 1490 1489 1484 1482 1484 1481 1481 1483 1482 1482 1481 1479 1477 1477 1476 1475 1475 1475 1475 1475 1474 1473 1473 1474 1472
1512 1511 1511 1512 1513 1513 1509 1504 1503 1498 1490 1487 1483 1481 1481 1485 1485 1488 1484 1483 1484 1485 1490 1489 1492 1493 1492 1489 1488 1486 1484 1483 1481 1482 1481 1481 1481 1481 1480 1480 1477 1476 1474 1469 1473 1474 1475 1474 1475 1475 1474 1475 1475 1474
1510 1510 1511 1511 1510 1510 1506 1496 1492 1488 1484 1481 1478 1478 1478 1482 1482 1481 1482 1484 1483 1483 1486 1490 1491 1489 1489 1489 1488 1487 1485 1484 1482 1481 1480 1478 1479 1478 1477 1478 1476 1475 1474 1475 1476 1476 1473 1475 1476 1475 1475 1476 1477 1477
1511 1511 1511 1509 1509 1504 1500 1494 1489 1488 1485 1479 1479 1477 1482 1478 1478 1480 1482 1485 1485 1487 1490 1490 1490 1489 1488 1487 1485 1486 1485 1486 1483 1480 1479 1481 1480 1480 1479 1479 1477 1475 1473 1476 1479 1475 1473 1475 1476 1477 1478 1478 1479 1479
1509 1509 1508 1506 1503 1498 1494 1489 1486 1482 1479 1476 1475 1474 1476 1475 1478 1482 1492 1488 1486 1487 1488 1488 1488 1488 1487 1486 1485 1485 1484 1481 1480 1480 1480 1479 1480 1480 1480 1480 1477 1477 1476 1476 1476 1476 1475 1479 1479 1478 1479 1479 1480 1481
1509 1508 1502 1497 1496 1492 1485 1482 1479 1476 1473 1471 1471 1466 1472 1473 1477 1484 1486 1485 1485 1486 1486 1486 1486 1484 1483 1481 1481 1483 1482 1479 1478 1480 1480 1481 1480 1482 1482 1482 1481 1479 1479 1477 1478 1479 1479 1480 1477 1479 1480 1481 1481 1481
1508 1502 1500 1493 1487 1484 1477 1476 1473 1473 1477 1474 1468 1466 1467 1470 1475 1481 1482 1486 1483 1485 1485 1485 1483 1482 1481 1481 1482 1482 1481 1481 1479 1482 1482 1483 1484 1483 1483 1483 1483 1482 1481 1480 1481 1479 1481 1479 1481 1483 1483 1485 1484 1484
1501 1492 1490 1480 1477 1476 1472 1469 1469 1474 1476 1465 1460 1465 1461 1466 1471 1478 1481 1485 1488 1487 1487 1486 1484 1483 1483 1484 1485 1485 1484 1483 1483 1485 1486 1486 1485 1485 1486 1486 1486 1487 1483 1480 1482 1482 1483 1485 1485 1486 1486 1486 1486 1487
1495 1483 1478 1476 1473 1469 1468 1468 1472 1474 1465 1461 1468 1464 1459 1464 1471 1478 1482 1482 1486 1487 1488 1488 1487 1486 1486 1486 1487 1488 1487 1487 1487 1489 1489 1488 1488 1488 1489 1490 1490 1490 1489 1487 1486 1485 1486 1485 1488 1488 1488 1489 1490 1490
1483 1475 1470 1468 1469 1469 1466 1465 1469 1466 1474 1477 1476 1465 1471 1464 1474 1479 1481 1483 1483 1486 1488 1488 1489 1489 1488 1488 1488 1488 1489 1488 1489 1489 1490 1490 1491 1491 1492 1492 1492 1491 1490 1490 1490 1491 1491 1491 1491 1492 1492 1492 1492 1492
1476 1471 1470 1466 1464 1462 1462 1457 1458 1467 1472 1474 1474 1468 1473 1474 1479 1481 1481 1480 1483 1484 1485 1486 1487 1487 1488 1489 1489 1489 1488 1488 1488 1490 1491 1491 1492 1494 1494 1494 1494 1494 1494 1494 1494 1494 1494 1495 1494 1495 1495 1495 1494 1494
1470 1467 1463 1461 1461 1460 1460 1461 1463 1463 1465 1465 1461 1469 1474 1478 1481 1479 1480 1481 1483 1484 1486 1487 1487 1488 1488 1488 1489 1490 1490 1489 1489 1489 1489 1491 1493 1495 1495 1496 1496 1496 1496 1497 1497 1497 1497 1497 1497 1497 1497 1497 1497 1497
1460 1458 1458 1457 1456 1461 1462 1466 1463 1459 1460 1465 1468 1471 1474 1477 1478 1480 1482 1482 1483 1484 1486 1487 1487 1488 1488 1489 1489 1489 1491 1491 1491 1492 1492 1493 1495 1496 1497 1498 1498 1498 1499 1499 1499 1499 1499 1499 1499 1499 1499 1499 1499 1499
1457 1456 1454 1454 1458 1463 1466 1466 1464 1458 1463 1464 1469 1474 1476 1476 1476 1478 1480 1483 1484 1485 1486 1487 1488 1489 1489 1489 1490 1490 1491 1492 1492 1492 1493 1495 1496 1498 1498 1499 1499 1500 1500 1500 1500 1501 1501 1501 1501 1501 1501 1501 1500 1500
1452 1452 1455 1459 1464 1473 1470 1469 1458 1456 1462 1467 1470 1470 1472 1475 1476 1479 1480 1482 1484 1485 1485 1487 1488 1488 1489 1490 1491 1491 1490 1490 1492 1493 1494 1495 1497 1497 1498 1499 1500 1501 1501 1502 1502 1502 1502 1502 1502 1502 1502 1502 1501 1501